| time (UTC) | temp C | wind direction | speed KPH | gust KPH | rain 1hr cm | rain 24hr cm | rain mn cm | humidity % | barometer mb |
| 20260510180042 | 27 | 87 | 0.0 | 0.0 | 0.00 | 1.37 | 0.00 | 70 | 1016.4 |
| 20260510174508 | 26 | 288 | 0.0 | 0.0 | 0.00 | 1.40 | 0.00 | 75 | 1016.6 |
| 20260510173007 | 26 | 71 | 0.0 | 0.0 | 0.00 | 1.40 | 0.00 | 72 | 1016.6 |
| 20260510171506 | 26 | 52 | 0.0 | 0.0 | 0.00 | 1.40 | 0.00 | 73 | 1016.7 |
| 20260510170025 | 26 | 72 | 0.0 | 0.0 | 0.00 | 1.40 | 0.00 | 74 | 1017.1 |
| 20260510164542 | 25 | 323 | 0.0 | 0.0 | 0.00 | 1.42 | 0.00 | 77 | 1017.2 |
| 20260510163020 | 25 | 57 | 0.0 | 0.0 | 0.00 | 1.42 | 0.00 | 76 | 1017.2 |
| 20260510161515 | 24 | 72 | 0.0 | 0.0 | 0.00 | 1.42 | 0.00 | 81 | 1017.2 |
| 20260510160014 | 23 | 295 | 0.0 | 0.0 | 0.00 | 1.55 | 0.00 | 80 | 1017.4 |
| 20260510154510 | 23 | 84 | 0.0 | 0.0 | 0.00 | 1.70 | 0.00 | 82 | 1017.6 |
| 20260510153006 | 23 | 70 | 0.0 | 0.0 | 0.00 | 1.83 | 0.00 | 84 | 1017.5 |
| 20260510151506 | 22 | 27 | 0.0 | 0.0 | 0.00 | 1.88 | 0.00 | 86 | 1017.3 |
| 20260510150024 | 22 | 81 | 0.0 | 0.0 | 0.00 | 1.93 | 0.00 | 87 | 1017.3 |
| 20260510144526 | 21 | 70 | 0.0 | 0.0 | 0.00 | 2.03 | 0.00 | 88 | 1017.3 |
| 20260510143022 | 20 | 79 | 0.0 | 0.0 | 0.00 | 2.13 | 0.00 | 93 | 1017.4 |
| 20260510141520 | 20 | 63 | 0.0 | 0.0 | 0.00 | 2.31 | 0.00 | 94 | 1017.2 |
| 20260510140018 | 20 | 70 | 0.0 | 0.0 | 0.00 | 2.49 | 0.00 | 95 | 1017.3 |
| 20260510134528 | 19 | 76 | 0.0 | 0.0 | 0.00 | 2.72 | 0.00 | 95 | 1017.2 |
| 20260510133026 | 18 | 73 | 0.0 | 0.0 | 0.00 | 2.82 | 0.00 | 96 | 1017.1 |
| 20260510131527 | 18 | 75 | 0.0 | 0.0 | 0.00 | 2.92 | 0.00 | 96 | 1016.9 |
| 20260510130030 | 18 | 66 | 0.0 | 0.0 | 0.00 | 3.05 | 0.00 | 96 | 1016.7 |
| 20260510124538 | 18 | 65 | 0.0 | 0.0 | 0.00 | 3.30 | 0.00 | 96 | 1016.5 |
| 20260510123024 | 18 | 65 | 0.0 | 0.0 | 0.00 | 3.71 | 0.00 | 95 | 1016.4 |
| 20260510121519 | 18 | 76 | 0.0 | 0.0 | 0.00 | 5.21 | 0.00 | 95 | 1016.0 |
| 20260510114517 | 17 | 95 | 0.0 | 0.0 | 0.00 | 6.45 | 0.00 | 95 | 1015.7 |
| 20260510113020 | 17 | 36 | 0.0 | 0.0 | 0.00 | 6.50 | 0.00 | 95 | 1015.4 |
| 20260510111513 | 17 | 278 | 0.0 | 0.0 | 0.00 | 6.50 | 0.00 | 95 | 1014.8 |
| 20260510110011 | 17 | 80 | 0.0 | 0.0 | 0.00 | 6.50 | 0.00 | 95 | 1014.3 |
| 20260510104512 | 17 | 90 | 0.0 | 0.0 | 0.00 | 6.50 | 0.00 | 95 | 1014.1 |
| 20260510103032 | 18 | 328 | 0.0 | 0.0 | 0.00 | 6.50 | 0.00 | 95 | 1013.9 |
| 20260510101522 | 18 | 326 | 0.0 | 0.0 | 0.00 | 6.50 | 0.00 | 95 | 1013.7 |
| 20260510100024 | 18 | 78 | 0.0 | 0.0 | 0.00 | 6.50 | 0.00 | 95 | 1013.6 |
| 20260510094522 | 18 | 78 | 0.0 | 0.0 | 0.00 | 6.50 | 0.00 | 95 | 1013.5 |
| 20260510093016 | 18 | 70 | 0.0 | 0.0 | 0.00 | 6.50 | 0.00 | 95 | 1013.6 |
| 20260510091537 | 18 | 70 | 0.0 | 0.0 | 0.00 | 6.53 | 0.00 | 95 | 1013.7 |
| 20260510090014 | 18 | 9 | 0.0 | 0.0 | 0.00 | 6.53 | 0.00 | 95 | 1013.8 |
| 20260510084508 | 18 | 292 | 0.0 | 0.0 | 0.00 | 6.53 | 0.00 | 95 | 1013.8 |
| 20260510083028 | 18 | 305 | 0.0 | 0.0 | 0.00 | 6.58 | 0.00 | 95 | 1013.6 |
| 20260510081536 | 18 | 248 | 0.0 | 0.0 | 0.00 | 6.60 | 0.00 | 95 | 1013.5 |
| 20260510080024 | 18 | 217 | 0.0 | 0.0 | 0.00 | 6.63 | 0.00 | 95 | 1013.5 |
| 20260510074522 | 18 | 217 | 0.0 | 0.0 | 0.00 | 6.63 | 0.00 | 95 | 1013.4 |
| 20260510073024 | 18 | 217 | 0.0 | 0.0 | 0.00 | 6.65 | 0.00 | 95 | 1013.2 |
| 20260510071516 | 18 | 217 | 0.0 | 0.0 | 0.00 | 6.65 | 0.00 | 95 | 1012.8 |
| 20260510070021 | 18 | 216 | 0.0 | 0.0 | 0.00 | 6.65 | 0.00 | 95 | 1012.9 |
| 20260510064536 | 18 | 216 | 0.0 | 0.0 | 0.00 | 6.65 | 0.00 | 95 | 1013.2 |
| 20260510063038 | 18 | 216 | 0.0 | 0.0 | 0.00 | 6.65 | 0.00 | 95 | 1013.2 |
| 20260510061542 | 18 | 216 | 0.0 | 0.0 | 0.00 | 6.65 | 0.00 | 95 | 1013.3 |
| 20260510060035 | 18 | 221 | 0.0 | 0.0 | 0.00 | 6.65 | 0.00 | 95 | 1013.4 |
| 20260510054510 | 18 | 221 | 0.0 | 0.0 | 0.00 | 6.73 | 0.00 | 95 | 1013.4 |
| 20260510053009 | 18 | 221 | 0.0 | 0.0 | 0.00 | 6.78 | 0.00 | 95 | 1013.3 |
| 20260510051506 | 18 | 221 | 0.0 | 0.0 | 0.00 | 6.88 | 0.00 | 95 | 1013.6 |
| 20260510050006 | 18 | 229 | 0.0 | 0.0 | 0.00 | 6.93 | 0.00 | 95 | 1013.5 |
| 20260510044509 | 18 | 229 | 0.0 | 0.0 | 0.00 | 6.96 | 6.93 | 95 | 1013.4 |
| 20260510043008 | 18 | 229 | 0.0 | 0.0 | 0.00 | 6.96 | 6.93 | 95 | 1013.2 |
| 20260510041506 | 18 | 287 | 0.0 | 0.0 | 0.00 | 6.96 | 6.93 | 95 | 1013.4 |
| 20260510040010 | 18 | 287 | 0.0 | 0.0 | 0.00 | 6.96 | 6.93 | 95 | 1013.1 |
| 20260510034510 | 18 | 108 | 0.0 | 0.0 | 0.00 | 6.96 | 6.93 | 95 | 1013.6 |
| 20260510033013 | 18 | 73 | 0.0 | 0.0 | 0.00 | 6.96 | 6.93 | 95 | 1013.9 |
| 20260510031510 | 18 | 73 | 0.0 | 0.0 | 0.00 | 6.96 | 6.93 | 95 | 1013.8 |
| 20260510030012 | 18 | 76 | 0.0 | 0.0 | 0.00 | 6.96 | 6.93 | 95 | 1014.1 |
| 20260510024510 | 18 | 76 | 0.0 | 0.0 | 0.00 | 6.96 | 6.93 | 95 | 1013.8 |
| 20260510023011 | 18 | 178 | 0.0 | 0.0 | 0.00 | 6.96 | 6.93 | 95 | 1013.4 |
| 20260510021513 | 19 | 158 | 0.0 | 0.0 | 0.00 | 6.96 | 6.93 | 95 | 1013.2 |
| 20260510020012 | 19 | 173 | 0.0 | 0.0 | 0.03 | 6.96 | 6.93 | 95 | 1013.5 |
| 20260510014516 | 19 | 108 | 0.0 | 0.0 | 0.05 | 6.96 | 6.93 | 95 | 1013.0 |
| 20260510013019 | 19 | 75 | 0.0 | 1.6 | 0.08 | 6.96 | 6.93 | 95 | 1013.1 |
| 20260510011519 | 19 | 342 | 0.0 | 3.2 | 0.08 | 6.96 | 6.93 | 95 | 1013.1 |
| 20260510010013 | 19 | 59 | 0.0 | 1.6 | 0.08 | 6.96 | 6.91 | 95 | 1011.7 |
| 20260510004513 | 19 | 167 | 0.0 | 0.0 | 0.05 | 6.93 | 6.88 | 95 | 1012.2 |
| 20260510003014 | 18 | 250 | 1.6 | 6.4 | 0.05 | 6.91 | 6.86 | 95 | 1012.3 |
| 20260510001513 | 19 | 73 | 0.0 | 0.0 | 0.10 | 6.93 | 6.86 | 95 | 1011.9 |
| 20260510000012 | 18 | 72 | 0.0 | 0.0 | 0.10 | 6.93 | 6.83 | 95 | 1012.8 |
| 20260509234528 | 19 | 218 | 0.0 | 0.0 | 0.13 | 6.93 | 6.83 | 95 | 1012.8 |
| 20260509233030 | 18 | 108 | 0.0 | 0.0 | 0.15 | 6.93 | 6.81 | 95 | 1012.4 |
| 20260509231516 | 18 | 117 | 0.0 | 0.0 | 0.18 | 6.91 | 6.76 | 95 | 1012.3 |
| 20260509230016 | 18 | 128 | 0.0 | 0.0 | 0.20 | 6.88 | 6.73 | 95 | 1012.4 |
| 20260509224518 | 18 | 79 | 0.0 | 0.0 | 0.20 | 6.96 | 6.71 | 95 | 1012.3 |
| 20260509223018 | 18 | 80 | 0.0 | 0.0 | 0.15 | 7.09 | 6.65 | 95 | 1012.5 |
| 20260509221513 | 18 | 81 | 0.0 | 0.0 | 0.13 | 7.11 | 6.58 | 95 | 1012.2 |
| 20260509220020 | 18 | 86 | 0.0 | 0.0 | 0.08 | 7.14 | 6.53 | 95 | 1012.2 |
| 20260509214516 | 18 | 82 | 0.0 | 3.2 | 0.10 | 7.16 | 6.50 | 95 | 1011.6 |
| 20260509213016 | 18 | 240 | 0.0 | 0.0 | 0.15 | 7.21 | 6.50 | 95 | 1011.7 |
| 20260509211520 | 18 | 99 | 0.0 | 0.0 | 0.15 | 7.29 | 6.45 | 95 | 1011.4 |
| 20260509210024 | 18 | 82 | 0.0 | 0.0 | 0.30 | 7.49 | 6.45 | 95 | 1011.0 |
| 20260509204520 | 18 | 101 | 0.0 | 0.0 | 0.36 | 7.59 | 6.40 | 95 | 1011.6 |
| 20260509203024 | 18 | 335 | 0.0 | 0.0 | 0.46 | 7.67 | 6.35 | 95 | 1011.3 |
| 20260509201518 | 18 | 97 | 0.0 | 0.0 | 0.53 | 7.72 | 6.30 | 95 | 1011.7 |
| 20260509200016 | 18 | 250 | 0.0 | 0.0 | 0.51 | 7.85 | 6.15 | 95 | 1013.1 |
| 20260509194510 | 18 | 88 | 0.0 | 0.0 | 0.48 | 8.03 | 6.05 | 95 | 1012.8 |
| 20260509193007 | 18 | 264 | 0.0 | 0.0 | 0.33 | 8.31 | 5.89 | 95 | 1012.5 |
| 20260509191505 | 18 | 229 | 0.0 | 0.0 | 0.20 | 8.99 | 5.77 | 95 | 1013.1 |
| 20260509190007 | 18 | 136 | 0.0 | 0.0 | 0.08 | 9.68 | 5.64 | 95 | 1013.2 |
| 20260509184532 | 18 | 78 | 0.0 | 0.0 | 0.03 | 10.21 | 5.56 | 95 | 1013.0 |
| 20260509183030 | 18 | 140 | 0.0 | 0.0 | 0.03 | 11.10 | 5.56 | 95 | 1012.8 |
| 20260509181520 | 18 | 58 | 0.0 | 0.0 | 0.03 | 11.23 | 5.56 | 95 | 1012.7 |